Location: Corralito
(10.2667°N, 66.9500°W)
Time: 13:35:11
(UTC+00:00)

GPS 2-12 Rocket1 - Pass Details

Date: 09 December 2023
Orbit: 576 x 637 km, 20.0° (Epoch: 04 March)

Event Time Altitude Azimuth Distance (km) Brightness Sun altitude
Exits shadow 07:58:54 12° 85° (E) 1,729 5.9 -36.4°
Drops below altitude 10° 07:59:17 10° 87° (E) 1,869 6.2 -36.3°
Sets 08:01:40 0° 94° (E) 2,765 7.3 -35.7°
